Time,TemperatureF,DewpointF,PressureIn,WindDirection,WindDirectionDegrees,WindSpeedMPH,WindSpeedGustMPH,Humidity,HourlyPrecipIn,Conditions,Clouds,dailyrainin,SoftwareType,DateUTC
2013-05-23 00:01:00,63.3,61.2,29.65,WSW,240,6.0,10.0,93,0.00,,,0.00,Wunderground v.1.15,2013-05-23 04:01:00,
2013-05-23 00:03:00,63.3,61.2,29.65,WSW,242,6.0,10.0,93,0.00,,,0.00,Wunderground v.1.15,2013-05-23 04:03:00,
2013-05-23 00:04:00,63.2,61.1,29.65,WSW,250,6.0,10.0,93,0.00,,,0.00,Wunderground v.1.15,2013-05-23 04:04:00,
2013-05-23 00:05:00,63.2,61.1,29.65,WSW,245,6.0,10.0,93,0.00,,,0.00,Wunderground v.1.15,2013-05-23 04:05:00,
2013-05-23 00:11:00,63.2,61.1,29.65,West,261,5.0,8.0,93,0.00,,,0.00,Wunderground v.1.15,2013-05-23 04:11:00,
2013-05-23 00:15:00,63.2,61.1,29.65,WSW,246,5.0,8.0,93,0.00,,,0.00,Wunderground v.1.15,2013-05-23 04:15:00,
2013-05-23 00:20:00,63.1,61.0,29.65,WSW,246,4.0,4.0,93,0.00,,,0.00,Wunderground v.1.15,2013-05-23 04:20:00,
2013-05-23 00:26:00,63.0,60.9,29.65,WSW,244,4.0,7.0,93,0.00,,,0.00,Wunderground v.1.15,2013-05-23 04:26:00,
2013-05-23 00:31:00,63.0,60.9,29.66,WSW,242,5.0,10.0,93,0.00,,,0.00,Wunderground v.1.15,2013-05-23 04:31:00,
2013-05-23 00:37:00,62.9,60.8,29.65,WSW,247,6.0,10.0,93,0.00,,,0.00,Wunderground v.1.15,2013-05-23 04:37:00,
2013-05-23 00:42:00,62.9,60.8,29.65,SW,229,5.0,6.0,93,0.00,,,0.00,Wunderground v.1.15,2013-05-23 04:42:00,
2013-05-23 00:47:00,62.9,61.1,29.65,WSW,243,5.0,8.0,94,0.00,,,0.00,Wunderground v.1.15,2013-05-23 04:47:00,
2013-05-23 00:52:00,62.8,61.0,29.65,WSW,239,5.0,7.0,94,0.00,,,0.00,Wunderground v.1.15,2013-05-23 04:52:00,
2013-05-23 00:58:00,62.6,60.8,29.66,WSW,238,5.0,7.0,94,0.00,,,0.00,Wunderground v.1.15,2013-05-23 04:58:00,
2013-05-23 01:03:00,62.6,60.8,29.66,WSW,238,4.0,5.0,94,0.00,,,0.00,Wunderground v.1.15,2013-05-23 05:03:00,
2013-05-23 01:08:00,62.5,60.7,29.65,WSW,243,4.0,5.0,94,0.00,,,0.00,Wunderground v.1.15,2013-05-23 05:08:00,
2013-05-23 01:14:00,62.4,60.7,29.66,SW,232,5.0,5.0,94,0.00,,,0.00,Wunderground v.1.15,2013-05-23 05:14:00,
2013-05-23 01:19:00,62.3,60.6,29.65,SW,236,4.0,6.0,94,0.00,,,0.00,Wunderground v.1.15,2013-05-23 05:19:00,
2013-05-23 01:24:00,62.2,60.5,29.65,WSW,242,4.0,7.0,94,0.00,,,0.00,Wunderground v.1.15,2013-05-23 05:24:00,
2013-05-23 01:29:00,62.2,60.5,29.66,WSW,242,4.0,7.0,94,0.00,,,0.00,Wunderground v.1.15,2013-05-23 05:29:00,
2013-05-23 01:34:00,62.1,60.4,29.66,WSW,240,4.0,7.0,94,0.00,,,0.00,Wunderground v.1.15,2013-05-23 05:34:00,
2013-05-23 01:40:00,62.0,60.3,29.66,WSW,243,4.0,4.0,94,0.00,,,0.00,Wunderground v.1.15,2013-05-23 05:40:00,
2013-05-23 01:45:00,61.9,60.2,29.66,WSW,243,4.0,6.0,94,0.00,,,0.00,Wunderground v.1.15,2013-05-23 05:45:00,
2013-05-23 01:50:00,61.8,60.1,29.66,SW,233,4.0,4.0,94,0.00,,,0.00,Wunderground v.1.15,2013-05-23 05:50:00,
2013-05-23 01:55:00,61.8,60.1,29.66,SW,234,4.0,6.0,94,0.00,,,0.00,Wunderground v.1.15,2013-05-23 05:55:00,
2013-05-23 02:00:00,61.7,60.0,29.66,SW,232,4.0,5.0,94,0.00,,,0.00,Wunderground v.1.15,2013-05-23 06:00:00,
2013-05-23 02:06:00,61.7,60.0,29.66,SW,232,4.0,5.0,94,0.00,,,0.00,Wunderground v.1.15,2013-05-23 06:06:00,
2013-05-23 02:11:00,61.6,59.9,29.66,SW,232,3.0,5.0,94,0.00,,,0.00,Wunderground v.1.15,2013-05-23 06:11:00,
2013-05-23 02:16:00,61.6,59.9,29.66,WSW,237,4.0,5.0,94,0.00,,,0.00,Wunderground v.1.15,2013-05-23 06:16:00,
2013-05-23 02:22:00,61.6,60.2,29.66,WSW,238,4.0,5.0,95,0.00,,,0.00,Wunderground v.1.15,2013-05-23 06:22:00,
2013-05-23 02:28:00,61.5,60.1,29.65,WSW,238,3.0,5.0,95,0.00,,,0.00,Wunderground v.1.15,2013-05-23 06:28:00,
2013-05-23 02:33:00,61.4,60.0,29.66,WSW,239,2.0,3.0,95,0.00,,,0.00,Wunderground v.1.15,2013-05-23 06:33:00,
2013-05-23 02:38:00,61.3,59.6,29.66,WSW,239,2.0,4.0,94,0.00,,,0.00,Wunderground v.1.15,2013-05-23 06:38:00,
2013-05-23 02:44:00,61.3,59.6,29.66,WSW,239,2.0,3.0,94,0.00,,,0.00,Wunderground v.1.15,2013-05-23 06:44:00,
2013-05-23 02:50:00,61.2,59.5,29.66,WSW,239,2.0,2.0,94,0.00,,,0.00,Wunderground v.1.15,2013-05-23 06:50:00,
2013-05-23 02:55:00,61.2,59.5,29.66,WSW,240,3.0,4.0,94,0.00,,,0.00,Wunderground v.1.15,2013-05-23 06:55:00,
2013-05-23 03:00:00,61.1,59.4,29.66,WSW,240,4.0,5.0,94,0.00,,,0.00,Wunderground v.1.15,2013-05-23 07:00:00,
2013-05-23 03:06:00,61.1,59.4,29.66,WSW,240,4.0,6.0,94,0.00,,,0.00,Wunderground v.1.15,2013-05-23 07:06:00,
2013-05-23 03:11:00,61.0,59.3,29.66,WSW,240,3.0,4.0,94,0.00,,,0.00,Wunderground v.1.15,2013-05-23 07:11:00,
2013-05-23 03:16:00,61.0,59.3,29.66,WSW,240,3.0,5.0,94,0.00,,,0.00,Wunderground v.1.15,2013-05-23 07:16:00,
2013-05-23 03:22:00,60.9,59.2,29.66,WSW,240,2.0,3.0,94,0.00,,,0.00,Wunderground v.1.15,2013-05-23 07:22:00,
2013-05-23 03:27:00,60.8,59.1,29.66,WSW,240,2.0,4.0,94,0.00,,,0.00,Wunderground v.1.15,2013-05-23 07:27:00,
2013-05-23 03:32:00,60.8,59.1,29.66,WSW,240,2.0,3.0,94,0.00,,,0.00,Wunderground v.1.15,2013-05-23 07:32:00,
2013-05-23 03:37:00,60.8,59.4,29.66,WSW,240,3.0,3.0,95,0.00,,,0.00,Wunderground v.1.15,2013-05-23 07:37:00,
2013-05-23 03:43:00,60.7,59.0,29.66,WSW,240,3.0,4.0,94,0.00,,,0.00,Wunderground v.1.15,2013-05-23 07:43:00,
2013-05-23 03:48:00,60.6,58.9,29.66,WSW,240,2.0,4.0,94,0.00,,,0.00,Wunderground v.1.15,2013-05-23 07:48:00,
2013-05-23 03:54:00,60.6,58.9,29.67,WSW,240,2.0,3.0,94,0.00,,,0.00,Wunderground v.1.15,2013-05-23 07:54:00,
2013-05-23 03:59:00,60.5,58.8,29.67,WSW,240,2.0,3.0,94,0.00,,,0.00,Wunderground v.1.15,2013-05-23 07:59:00,
2013-05-23 04:04:00,60.4,59.0,29.67,WSW,240,2.0,2.0,95,0.00,,,0.00,Wunderground v.1.15,2013-05-23 08:04:00,
2013-05-23 04:10:00,60.4,59.0,29.67,WSW,240,1.0,3.0,95,0.00,,,0.00,Wunderground v.1.15,2013-05-23 08:10:00,
2013-05-23 04:15:00,60.3,58.9,29.67,WSW,240,2.0,3.0,95,0.00,,,0.00,Wunderground v.1.15,2013-05-23 08:15:00,
2013-05-23 04:20:00,60.2,58.8,29.67,WSW,240,1.0,1.0,95,0.00,,,0.00,Wunderground v.1.15,2013-05-23 08:20:00,
2013-05-23 04:25:00,60.2,58.8,29.67,WSW,240,1.0,2.0,95,0.00,,,0.00,Wunderground v.1.15,2013-05-23 08:25:00,
2013-05-23 04:31:00,60.2,58.8,29.67,WSW,240,1.0,2.0,95,0.00,,,0.00,Wunderground v.1.15,2013-05-23 08:31:00,
2013-05-23 04:36:00,60.2,58.8,29.67,WSW,240,1.0,2.0,95,0.00,,,0.00,Wunderground v.1.15,2013-05-23 08:36:00,
2013-05-23 04:42:00,60.3,58.9,29.67,WSW,240,1.0,1.0,95,0.00,,,0.00,Wunderground v.1.15,2013-05-23 08:42:00,
2013-05-23 04:47:00,60.3,58.9,29.67,WSW,240,0.0,3.0,95,0.00,,,0.00,Wunderground v.1.15,2013-05-23 08:47:00,
2013-05-23 04:52:00,60.4,59.0,29.67,WSW,240,1.0,1.0,95,0.00,,,0.00,Wunderground v.1.15,2013-05-23 08:52:00,
2013-05-23 04:57:00,60.4,59.0,29.68,WSW,240,1.0,3.0,95,0.00,,,0.00,Wunderground v.1.15,2013-05-23 08:57:00,
2013-05-23 05:03:00,60.3,58.9,29.68,WSW,240,1.0,1.0,95,0.00,,,0.00,Wunderground v.1.15,2013-05-23 09:03:00,
2013-05-23 05:09:00,60.3,58.9,29.68,WSW,240,2.0,2.0,95,0.00,,,0.00,Wunderground v.1.15,2013-05-23 09:09:00,
2013-05-23 05:14:00,60.3,58.9,29.68,WSW,240,1.0,3.0,95,0.00,,,0.00,Wunderground v.1.15,2013-05-23 09:14:00,
2013-05-23 05:19:00,60.2,58.8,29.68,WSW,240,1.0,3.0,95,0.00,,,0.00,Wunderground v.1.15,2013-05-23 09:19:00,
2013-05-23 05:24:00,60.2,58.8,29.68,WSW,240,1.0,1.0,95,0.00,,,0.00,Wunderground v.1.15,2013-05-23 09:24:00,
2013-05-23 05:29:00,60.1,58.7,29.68,WSW,240,1.0,1.0,95,0.00,,,0.00,Wunderground v.1.15,2013-05-23 09:29:00,
2013-05-23 05:35:00,60.0,58.6,29.68,WSW,240,0.0,1.0,95,0.00,,,0.00,Wunderground v.1.15,2013-05-23 09:35:00,
2013-05-23 05:40:00,60.1,58.7,29.68,WSW,240,0.0,0.0,95,0.00,,,0.00,Wunderground v.1.15,2013-05-23 09:40:00,
2013-05-23 05:45:00,60.2,58.8,29.68,WSW,240,1.0,1.0,95,0.00,,,0.00,Wunderground v.1.15,2013-05-23 09:45:00,
2013-05-23 05:50:00,60.3,58.9,29.68,WSW,240,0.0,1.0,95,0.00,,,0.00,Wunderground v.1.15,2013-05-23 09:50:00,
2013-05-23 05:56:00,60.4,59.0,29.68,WSW,240,1.0,3.0,95,0.00,,,0.00,Wunderground v.1.15,2013-05-23 09:56:00,
2013-05-23 06:02:00,60.4,59.0,29.68,WSW,240,2.0,2.0,95,0.00,,,0.00,Wunderground v.1.15,2013-05-23 10:02:00,
2013-05-23 06:07:00,60.4,59.3,29.69,WSW,240,1.0,3.0,96,0.00,,,0.00,Wunderground v.1.15,2013-05-23 10:07:00,
2013-05-23 06:12:00,60.5,59.4,29.69,WSW,240,2.0,3.0,96,0.00,,,0.00,Wunderground v.1.15,2013-05-23 10:12:00,
2013-05-23 06:17:00,60.5,59.4,29.69,WSW,240,2.0,3.0,96,0.00,,,0.00,Wunderground v.1.15,2013-05-23 10:17:00,
2013-05-23 06:22:00,60.6,59.5,29.69,WSW,240,3.0,3.0,96,0.00,,,0.00,Wunderground v.1.15,2013-05-23 10:22:00,
2013-05-23 06:27:00,60.6,59.5,29.69,WSW,240,2.0,3.0,96,0.00,,,0.00,Wunderground v.1.15,2013-05-23 10:27:00,
2013-05-23 06:33:00,-999.9,-99.9,29.69,North,32767,-999.0,0.0,255,-99.99,,,0.00,Wunderground v.1.15,2013-05-23 10:33:00,
2013-05-23 06:39:00,-999.9,-99.9,29.69,North,32767,-999.0,0.0,255,-99.99,,,0.00,Wunderground v.1.15,2013-05-23 10:39:00,
2013-05-23 06:46:00,-999.9,-99.9,29.69,North,32767,-999.0,0.0,255,-99.99,,,0.00,Wunderground v.1.15,2013-05-23 10:46:00,
2013-05-23 06:51:00,-999.9,-99.9,29.69,North,32767,-999.0,0.0,255,-99.99,,,0.00,Wunderground v.1.15,2013-05-23 10:51:00,
2013-05-23 06:56:00,-999.9,-99.9,29.69,North,32767,-999.0,0.0,255,-99.99,,,0.00,Wunderground v.1.15,2013-05-23 10:56:00,
2013-05-23 07:02:00,-999.9,-99.9,29.69,North,32767,-999.0,0.0,255,-99.99,,,0.00,Wunderground v.1.15,2013-05-23 11:02:00,
2013-05-23 07:07:00,-999.9,-99.9,29.70,North,32767,-999.0,0.0,255,-99.99,,,0.00,Wunderground v.1.15,2013-05-23 11:07:00,
2013-05-23 07:12:00,-999.9,-99.9,29.70,North,32767,-999.0,0.0,255,-99.99,,,0.00,Wunderground v.1.15,2013-05-23 11:12:00,
2013-05-23 07:18:00,-999.9,-99.9,29.70,North,32767,-999.0,0.0,255,-99.99,,,0.00,Wunderground v.1.15,2013-05-23 11:18:00,
2013-05-23 07:23:00,-999.9,-99.9,29.70,North,32767,-999.0,0.0,255,-99.99,,,0.00,Wunderground v.1.15,2013-05-23 11:23:00,
2013-05-23 07:28:00,-999.9,-99.9,29.70,North,32767,-999.0,0.0,255,-99.99,,,0.00,Wunderground v.1.15,2013-05-23 11:28:00,
2013-05-23 07:33:00,-999.9,-99.9,29.70,North,32767,-999.0,0.0,255,-99.99,,,0.00,Wunderground v.1.15,2013-05-23 11:33:00,
2013-05-23 07:39:00,-999.9,-99.9,29.70,North,32767,-999.0,0.0,255,-99.99,,,0.00,Wunderground v.1.15,2013-05-23 11:39:00,
2013-05-23 07:44:00,-999.9,-99.9,29.70,North,32767,-999.0,0.0,255,-99.99,,,0.00,Wunderground v.1.15,2013-05-23 11:44:00,
2013-05-23 07:49:00,-999.9,-99.9,29.70,North,32767,-999.0,0.0,255,-99.99,,,0.00,Wunderground v.1.15,2013-05-23 11:49:00,
2013-05-23 07:55:00,61.7,-99.9,29.71,West,267,8.0,8.0,255,-99.99,,,0.00,Wunderground v.1.15,2013-05-23 11:55:00,
2013-05-23 08:00:00,61.8,59.8,29.71,West,267,1.0,1.0,93,-99.99,,,0.01,Wunderground v.1.15,2013-05-23 12:00:00,
2013-05-23 08:06:00,61.8,59.8,29.71,West,267,2.0,5.0,93,-99.99,,,0.01,Wunderground v.1.15,2013-05-23 12:06:00,
2013-05-23 08:11:00,61.9,59.9,29.71,West,265,3.0,3.0,93,-99.99,,,0.01,Wunderground v.1.15,2013-05-23 12:11:00,
2013-05-23 08:16:00,62.0,59.6,29.71,West,269,4.0,7.0,92,0.00,,,0.01,Wunderground v.1.15,2013-05-23 12:16:00,
2013-05-23 08:22:00,62.0,59.6,29.71,West,279,4.0,4.0,92,0.00,,,0.01,Wunderground v.1.15,2013-05-23 12:22:00,
2013-05-23 08:27:00,62.0,59.3,29.71,West,272,4.0,5.0,91,0.00,,,0.01,Wunderground v.1.15,2013-05-23 12:27:00,
2013-05-23 08:32:00,62.0,59.3,29.71,West,268,4.0,4.0,91,0.00,,,0.01,Wunderground v.1.15,2013-05-23 12:32:00,
2013-05-23 08:38:00,62.1,59.4,29.71,West,267,4.0,7.0,91,0.00,,,0.01,Wunderground v.1.15,2013-05-23 12:38:00,
2013-05-23 08:43:00,62.2,59.5,29.72,West,269,4.0,7.0,91,0.00,,,0.01,Wunderground v.1.15,2013-05-23 12:43:00,
2013-05-23 08:48:00,62.2,59.5,29.72,West,278,5.0,8.0,91,0.00,,,0.01,Wunderground v.1.15,2013-05-23 12:48:00,
2013-05-23 08:53:00,62.2,59.2,29.72,West,278,5.0,9.0,90,0.00,,,0.01,Wunderground v.1.15,2013-05-23 12:53:00,
2013-05-23 08:59:00,62.2,59.2,29.72,West,267,6.0,9.0,90,0.00,,,0.01,Wunderground v.1.15,2013-05-23 12:59:00,
2013-05-23 09:04:00,62.5,59.5,29.72,West,267,5.0,7.0,90,0.00,,,0.01,Wunderground v.1.15,2013-05-23 13:04:00,
2013-05-23 09:09:00,62.6,59.3,29.73,WNW,284,5.0,7.0,89,0.00,,,0.01,Wunderground v.1.15,2013-05-23 13:09:00,
2013-05-23 09:15:00,62.7,59.4,29.73,West,275,6.0,8.0,89,0.00,,,0.01,Wunderground v.1.15,2013-05-23 13:15:00,
2013-05-23 09:21:00,62.8,59.5,29.73,West,271,6.0,8.0,89,0.00,,,0.01,Wunderground v.1.15,2013-05-23 13:21:00,
2013-05-23 09:27:00,63.0,59.4,29.73,West,263,6.0,13.0,88,0.00,,,0.01,Wunderground v.1.15,2013-05-23 13:27:00,
2013-05-23 09:32:00,63.1,59.2,29.73,West,279,6.0,8.0,87,0.00,,,0.01,Wunderground v.1.15,2013-05-23 13:32:00,
2013-05-23 09:37:00,63.2,58.9,29.73,WNW,294,6.0,9.0,86,0.00,,,0.01,Wunderground v.1.15,2013-05-23 13:37:00,
2013-05-23 09:42:00,63.2,58.9,29.73,West,277,6.0,11.0,86,0.00,,,0.01,Wunderground v.1.15,2013-05-23 13:42:00,
2013-05-23 09:47:00,63.2,58.9,29.73,WNW,291,6.0,11.0,86,0.00,,,0.01,Wunderground v.1.15,2013-05-23 13:47:00,
2013-05-23 09:53:00,63.1,58.8,29.73,NW,305,6.0,8.0,86,0.00,,,0.01,Wunderground v.1.15,2013-05-23 13:53:00,
2013-05-23 09:58:00,63.0,59.1,29.73,West,279,6.0,8.0,87,0.00,,,0.01,Wunderground v.1.15,2013-05-23 13:58:00,
2013-05-23 10:03:00,63.1,58.8,29.73,West,278,5.0,8.0,86,0.00,,,0.01,Wunderground v.1.15,2013-05-23 14:03:00,
2013-05-23 10:09:00,63.2,58.9,29.73,WNW,296,5.0,8.0,86,0.00,,,0.01,Wunderground v.1.15,2013-05-23 14:09:00,
2013-05-23 10:14:00,63.4,58.8,29.74,WNW,299,5.0,6.0,85,0.00,,,0.01,Wunderground v.1.15,2013-05-23 14:14:00,
2013-05-23 10:19:00,63.2,58.6,29.74,WNW,290,5.0,6.0,85,0.00,,,0.01,Wunderground v.1.15,2013-05-23 14:19:00,
2013-05-23 10:25:00,63.4,58.5,29.74,WNW,290,5.0,9.0,84,0.00,,,0.01,Wunderground v.1.15,2013-05-23 14:25:00,
2013-05-23 10:30:00,63.3,58.4,29.74,WNW,285,6.0,6.0,84,0.00,,,0.01,Wunderground v.1.15,2013-05-23 14:30:00,
2013-05-23 10:35:00,63.4,58.1,29.74,WNW,288,6.0,8.0,83,0.00,,,0.01,Wunderground v.1.15,2013-05-23 14:35:00,
2013-05-23 10:41:00,63.4,58.1,29.74,WNW,289,6.0,6.0,83,0.00,,,0.01,Wunderground v.1.15,2013-05-23 14:41:00,
2013-05-23 10:47:00,63.3,58.0,29.74,NW,314,5.0,8.0,83,0.00,,,0.01,Wunderground v.1.15,2013-05-23 14:47:00,
2013-05-23 10:52:00,62.2,57.3,29.75,NNW,348,6.0,8.0,84,0.00,,,0.01,Wunderground v.1.15,2013-05-23 14:52:00,
2013-05-23 10:57:00,61.0,56.8,29.75,NNE,22,7.0,10.0,86,0.00,,,0.01,Wunderground v.1.15,2013-05-23 14:57:00,
2013-05-23 11:03:00,59.9,56.0,29.75,NNE,26,6.0,9.0,87,0.00,,,0.01,Wunderground v.1.15,2013-05-23 15:03:00,
2013-05-23 11:08:00,59.3,55.7,29.75,North,5,5.0,11.0,88,0.00,,,0.01,Wunderground v.1.15,2013-05-23 15:08:00,
2013-05-23 11:14:00,59.0,55.4,29.76,NE,37,5.0,8.0,88,0.00,,,0.01,Wunderground v.1.15,2013-05-23 15:14:00,
2013-05-23 11:19:00,58.7,55.5,29.75,NE,44,6.0,9.0,89,0.00,,,0.01,Wunderground v.1.15,2013-05-23 15:19:00,
2013-05-23 11:24:00,58.5,55.3,29.75,NNE,31,6.0,7.0,89,0.00,,,0.01,Wunderground v.1.15,2013-05-23 15:24:00,
2013-05-23 11:29:00,58.3,55.1,29.75,NNE,13,6.0,10.0,89,0.00,,,0.01,Wunderground v.1.15,2013-05-23 15:29:00,
2013-05-23 11:35:00,58.0,54.8,29.76,NE,38,6.0,10.0,89,0.00,,,0.01,Wunderground v.1.15,2013-05-23 15:35:00,
2013-05-23 11:40:00,57.8,54.6,29.76,North,5,6.0,6.0,89,0.00,,,0.01,Wunderground v.1.15,2013-05-23 15:40:00,
2013-05-23 11:45:00,57.5,54.6,29.76,North,360,6.0,6.0,90,0.00,,,0.01,Wunderground v.1.15,2013-05-23 15:45:00,
2013-05-23 11:50:00,57.4,54.8,29.76,NNE,18,5.0,9.0,91,0.00,,,0.01,Wunderground v.1.15,2013-05-23 15:50:00,
2013-05-23 11:56:00,57.1,54.5,29.77,North,355,6.0,9.0,91,0.00,,,0.01,Wunderground v.1.15,2013-05-23 15:56:00,
2013-05-23 12:02:00,56.6,54.0,29.77,NNW,327,6.0,8.0,91,0.00,,,0.01,Wunderground v.1.15,2013-05-23 16:02:00,
2013-05-23 12:07:00,55.9,53.3,29.78,North,5,7.0,8.0,91,0.00,,,0.01,Wunderground v.1.15,2013-05-23 16:07:00,
2013-05-23 12:12:00,55.1,52.5,29.78,NNE,19,6.0,10.0,91,0.00,,,0.01,Wunderground v.1.15,2013-05-23 16:12:00,
2013-05-23 12:18:00,54.5,51.9,29.78,NE,44,6.0,10.0,91,0.00,,,0.01,Wunderground v.1.15,2013-05-23 16:18:00,
2013-05-23 12:23:00,54.0,51.4,29.79,NE,39,7.0,9.0,91,0.00,,,0.01,Wunderground v.1.15,2013-05-23 16:23:00,
2013-05-23 12:28:00,53.3,50.7,29.79,NE,43,7.0,13.0,91,0.00,,,0.01,Wunderground v.1.15,2013-05-23 16:28:00,
2013-05-23 12:33:00,52.7,50.1,29.79,NNE,19,7.0,9.0,91,0.00,,,0.01,Wunderground v.1.15,2013-05-23 16:33:00,
2013-05-23 12:39:00,52.3,49.8,29.80,NE,43,7.0,11.0,91,0.00,,,0.01,Wunderground v.1.15,2013-05-23 16:39:00,
2013-05-23 12:44:00,51.8,49.3,29.80,NE,51,7.0,11.0,91,0.00,,,0.01,Wunderground v.1.15,2013-05-23 16:44:00,
2013-05-23 12:49:00,51.2,48.7,29.81,North,355,8.0,16.0,91,0.00,,,0.01,Wunderground v.1.15,2013-05-23 16:49:00,
2013-05-23 12:55:00,50.8,48.3,29.81,North,5,7.0,11.0,91,0.00,,,0.01,Wunderground v.1.15,2013-05-23 16:55:00,
2013-05-23 13:00:00,50.6,47.8,29.81,NW,325,8.0,11.0,90,0.00,,,0.01,Wunderground v.1.15,2013-05-23 17:00:00,
2013-05-23 13:06:00,50.6,47.8,29.81,NNE,20,8.0,13.0,90,0.00,,,0.01,Wunderground v.1.15,2013-05-23 17:06:00,
2013-05-23 13:11:00,50.7,47.9,29.81,NE,42,6.0,7.0,90,0.00,,,0.01,Wunderground v.1.15,2013-05-23 17:11:00,
2013-05-23 13:16:00,50.5,47.7,29.82,NNE,19,5.0,12.0,90,0.00,,,0.01,Wunderground v.1.15,2013-05-23 17:16:00,
2013-05-23 13:21:00,50.4,47.6,29.82,NNE,22,7.0,11.0,90,0.00,,,0.01,Wunderground v.1.15,2013-05-23 17:21:00,
2013-05-23 13:27:00,50.2,47.4,29.82,North,9,6.0,11.0,90,0.00,,,0.01,Wunderground v.1.15,2013-05-23 17:27:00,
2013-05-23 13:33:00,49.9,46.8,29.82,NNW,336,7.0,9.0,89,0.00,,,0.01,Wunderground v.1.15,2013-05-23 17:33:00,
2013-05-23 13:38:00,49.4,46.3,29.83,North,355,8.0,11.0,89,0.00,,,0.01,Wunderground v.1.15,2013-05-23 17:38:00,
2013-05-23 13:43:00,49.1,46.0,29.83,North,5,8.0,14.0,89,0.00,,,0.01,Wunderground v.1.15,2013-05-23 17:43:00,
2013-05-23 13:48:00,48.7,45.3,29.83,NNW,333,7.0,14.0,88,0.00,,,0.01,Wunderground v.1.15,2013-05-23 17:48:00,
2013-05-23 13:54:00,48.4,45.0,29.83,NNE,22,9.0,11.0,88,0.00,,,0.01,Wunderground v.1.15,2013-05-23 17:54:00,
2013-05-23 13:59:00,48.1,44.7,29.83,NNE,24,10.0,11.0,88,0.00,,,0.01,Wunderground v.1.15,2013-05-23 17:59:00,
2013-05-23 14:04:00,48.0,44.6,29.84,North,9,9.0,15.0,88,0.00,,,0.01,Wunderground v.1.15,2013-05-23 18:04:00,
2013-05-23 14:10:00,47.9,44.5,29.84,North,350,8.0,8.0,88,0.00,,,0.01,Wunderground v.1.15,2013-05-23 18:10:00,
2013-05-23 14:15:00,47.9,45.1,29.84,NE,37,6.0,8.0,90,0.00,,,0.02,Wunderground v.1.15,2013-05-23 18:15:00,
2013-05-23 14:20:00,47.8,44.7,29.85,NNE,22,6.0,6.0,89,0.00,,,0.02,Wunderground v.1.15,2013-05-23 18:20:00,
2013-05-23 14:26:00,47.7,44.9,29.85,NNE,30,7.0,9.0,90,0.00,,,0.02,Wunderground v.1.15,2013-05-23 18:26:00,
2013-05-23 14:31:00,47.7,44.9,29.85,NNE,29,6.0,9.0,90,0.00,,,0.02,Wunderground v.1.15,2013-05-23 18:31:00,
2013-05-23 14:37:00,47.7,44.9,29.85,NNE,31,7.0,12.0,90,0.00,,,0.02,Wunderground v.1.15,2013-05-23 18:37:00,
2013-05-23 14:42:00,47.6,44.8,29.85,NE,45,6.0,7.0,90,0.00,,,0.02,Wunderground v.1.15,2013-05-23 18:42:00,
2013-05-23 14:47:00,47.3,44.8,29.86,NNW,328,6.0,9.0,91,0.00,,,0.02,Wunderground v.1.15,2013-05-23 18:47:00,
2013-05-23 14:53:00,47.2,44.7,29.86,NNE,24,8.0,8.0,91,0.00,,,0.03,Wunderground v.1.15,2013-05-23 18:53:00,
2013-05-23 14:58:00,47.2,44.7,29.87,NNE,12,7.0,16.0,91,0.00,,,0.03,Wunderground v.1.15,2013-05-23 18:58:00,
2013-05-23 15:03:00,47.0,44.5,29.87,North,351,7.0,12.0,91,0.00,,,0.03,Wunderground v.1.15,2013-05-23 19:03:00,
2013-05-23 15:08:00,46.9,44.4,29.88,NNW,347,7.0,12.0,91,0.05,,,0.04,Wunderground v.1.15,2013-05-23 19:08:00,
2013-05-23 15:13:00,46.8,44.3,29.88,NNW,345,7.0,13.0,91,0.05,,,0.04,Wunderground v.1.15,2013-05-23 19:13:00,
2013-05-23 15:19:00,46.5,44.0,29.88,North,5,7.0,13.0,91,0.04,,,0.05,Wunderground v.1.15,2013-05-23 19:19:00,
2013-05-23 15:25:00,46.2,44.0,29.88,NNW,342,7.0,12.0,92,0.12,,,0.06,Wunderground v.1.15,2013-05-23 19:25:00,
2013-05-23 15:30:00,46.0,43.8,29.89,NNW,334,7.0,7.0,92,0.08,,,0.06,Wunderground v.1.15,2013-05-23 19:30:00,
2013-05-23 15:35:00,46.0,43.8,29.89,NNW,333,6.0,7.0,92,0.05,,,0.06,Wunderground v.1.15,2013-05-23 19:35:00,
2013-05-23 15:41:00,45.8,43.6,29.89,NNW,342,6.0,13.0,92,0.04,,,0.07,Wunderground v.1.15,2013-05-23 19:41:00,
2013-05-23 15:46:00,45.5,43.6,29.89,North,5,7.0,13.0,93,0.10,,,0.08,Wunderground v.1.15,2013-05-23 19:46:00,
2013-05-23 15:51:00,45.3,43.4,29.89,NE,34,6.0,9.0,93,0.10,,,0.08,Wunderground v.1.15,2013-05-23 19:51:00,
2013-05-23 15:57:00,45.2,43.3,29.90,North,11,6.0,9.0,93,0.08,,,0.09,Wunderground v.1.15,2013-05-23 19:57:00,
2013-05-23 16:02:00,45.3,43.4,29.90,NW,325,6.0,11.0,93,0.08,,,0.10,Wunderground v.1.15,2013-05-23 20:02:00,
2013-05-23 16:08:00,45.2,43.3,29.90,NNW,344,7.0,15.0,93,0.07,,,0.10,Wunderground v.1.15,2013-05-23 20:08:00,
2013-05-23 16:13:00,45.2,43.3,29.91,North,355,7.0,13.0,93,0.06,,,0.11,Wunderground v.1.15,2013-05-23 20:13:00,
2013-05-23 16:18:00,45.2,43.3,29.91,NNW,328,7.0,13.0,93,0.06,,,0.11,Wunderground v.1.15,2013-05-23 20:18:00,
2013-05-23 16:24:00,45.5,43.6,29.91,NNE,30,6.0,7.0,93,0.04,,,0.11,Wunderground v.1.15,2013-05-23 20:24:00,
2013-05-23 16:30:00,45.1,43.2,29.91,NE,36,8.0,11.0,93,0.00,,,0.12,Wunderground v.1.15,2013-05-23 20:30:00,
2013-05-23 16:35:00,45.0,43.1,29.91,North,360,11.0,19.0,93,0.00,,,0.12,Wunderground v.1.15,2013-05-23 20:35:00,
2013-05-23 16:40:00,45.2,43.3,29.91,NE,45,8.0,10.0,93,0.00,,,0.12,Wunderground v.1.15,2013-05-23 20:40:00,
2013-05-23 16:46:00,45.2,43.3,29.92,NNW,327,7.0,10.0,93,0.00,,,0.12,Wunderground v.1.15,2013-05-23 20:46:00,
2013-05-23 16:51:00,45.1,43.2,29.92,NNW,338,6.0,8.0,93,0.00,,,0.12,Wunderground v.1.15,2013-05-23 20:51:00,
2013-05-23 16:56:00,45.0,42.8,29.92,NNE,14,7.0,14.0,92,0.00,,,0.12,Wunderground v.1.15,2013-05-23 20:56:00,
2013-05-23 17:02:00,44.9,42.7,29.92,NNE,18,9.0,10.0,92,0.00,,,0.12,Wunderground v.1.15,2013-05-23 21:02:00,
2013-05-23 17:07:00,44.7,42.5,29.93,NNW,343,8.0,13.0,92,0.00,,,0.12,Wunderground v.1.15,2013-05-23 21:07:00,
2013-05-23 17:12:00,44.6,42.4,29.94,NNW,338,8.0,22.0,92,0.00,,,0.12,Wunderground v.1.15,2013-05-23 21:12:00,
2013-05-23 17:18:00,44.6,42.4,29.94,NNW,332,8.0,22.0,92,0.00,,,0.12,Wunderground v.1.15,2013-05-23 21:18:00,
2013-05-23 17:23:00,44.5,42.3,29.94,NE,35,7.0,11.0,92,0.00,,,0.12,Wunderground v.1.15,2013-05-23 21:23:00,
2013-05-23 17:29:00,44.5,42.3,29.94,NNE,23,7.0,13.0,92,0.00,,,0.12,Wunderground v.1.15,2013-05-23 21:29:00,
2013-05-23 17:34:00,44.5,42.3,29.94,North,355,7.0,7.0,92,0.00,,,0.12,Wunderground v.1.15,2013-05-23 21:34:00,
2013-05-23 17:39:00,44.4,42.2,29.95,NW,317,7.0,13.0,92,0.00,,,0.12,Wunderground v.1.15,2013-05-23 21:39:00,
2013-05-23 17:44:00,44.3,41.8,29.95,NNE,20,8.0,11.0,91,0.00,,,0.12,Wunderground v.1.15,2013-05-23 21:44:00,
2013-05-23 17:49:00,44.2,41.7,29.95,NNW,337,8.0,11.0,91,0.00,,,0.12,Wunderground v.1.15,2013-05-23 21:49:00,
2013-05-23 17:55:00,44.1,41.6,29.96,NNW,345,8.0,11.0,91,0.00,,,0.13,Wunderground v.1.15,2013-05-23 21:55:00,
2013-05-23 18:00:00,44.1,41.9,29.96,NNW,332,7.0,9.0,92,0.00,,,0.13,Wunderground v.1.15,2013-05-23 22:00:00,
2013-05-23 18:06:00,44.1,41.9,29.96,NNW,330,7.0,14.0,92,0.00,,,0.13,Wunderground v.1.15,2013-05-23 22:06:00,
2013-05-23 18:12:00,44.2,42.0,29.96,North,5,6.0,6.0,92,0.00,,,0.14,Wunderground v.1.15,2013-05-23 22:12:00,
2013-05-23 18:17:00,44.1,41.9,29.97,NE,50,6.0,8.0,92,0.00,,,0.14,Wunderground v.1.15,2013-05-23 22:17:00,
2013-05-23 18:22:00,44.0,41.8,29.97,NNE,30,7.0,8.0,92,0.00,,,0.14,Wunderground v.1.15,2013-05-23 22:22:00,
2013-05-23 18:28:00,43.8,41.6,29.98,NNE,32,7.0,11.0,92,0.00,,,0.14,Wunderground v.1.15,2013-05-23 22:28:00,
2013-05-23 18:34:00,43.7,41.5,29.98,NNW,327,7.0,9.0,92,0.00,,,0.14,Wunderground v.1.15,2013-05-23 22:34:00,
2013-05-23 18:39:00,43.9,41.7,29.99,NNW,348,6.0,14.0,92,0.00,,,0.14,Wunderground v.1.15,2013-05-23 22:39:00,
2013-05-23 18:44:00,43.7,41.5,29.99,North,355,7.0,16.0,92,0.00,,,0.15,Wunderground v.1.15,2013-05-23 22:44:00,
2013-05-23 18:50:00,43.4,41.2,29.99,North,355,9.0,12.0,92,0.00,,,0.15,Wunderground v.1.15,2013-05-23 22:50:00,
2013-05-23 18:56:00,43.4,41.2,30.00,NNW,340,7.0,12.0,92,0.00,,,0.15,Wunderground v.1.15,2013-05-23 22:56:00,
2013-05-23 19:02:00,43.4,41.2,30.00,NNE,23,7.0,10.0,92,0.00,,,0.15,Wunderground v.1.15,2013-05-23 23:02:00,
2013-05-23 19:07:00,43.4,41.2,30.00,NNW,346,7.0,10.0,92,0.00,,,0.15,Wunderground v.1.15,2013-05-23 23:07:00,
2013-05-23 19:12:00,43.4,41.2,30.00,NE,36,6.0,8.0,92,0.00,,,0.15,Wunderground v.1.15,2013-05-23 23:12:00,
2013-05-23 19:17:00,43.4,41.2,30.00,NNW,337,7.0,15.0,92,0.00,,,0.15,Wunderground v.1.15,2013-05-23 23:17:00,
2013-05-23 19:23:00,43.3,41.1,30.01,NW,314,10.0,17.0,92,0.00,,,0.15,Wunderground v.1.15,2013-05-23 23:23:00,
2013-05-23 19:28:00,43.3,40.8,30.01,North,355,10.0,17.0,91,0.00,,,0.15,Wunderground v.1.15,2013-05-23 23:28:00,
2013-05-23 19:34:00,43.2,40.8,30.02,North,5,9.0,10.0,91,0.00,,,0.15,Wunderground v.1.15,2013-05-23 23:34:00,
2013-05-23 19:39:00,43.1,40.4,30.02,NE,36,10.0,13.0,90,0.00,,,0.15,Wunderground v.1.15,2013-05-23 23:39:00,
2013-05-23 19:44:00,43.1,40.4,30.02,North,5,10.0,10.0,90,0.00,,,0.15,Wunderground v.1.15,2013-05-23 23:44:00,
2013-05-23 19:49:00,43.1,40.1,30.03,North,9,8.0,12.0,89,0.00,,,0.15,Wunderground v.1.15,2013-05-23 23:49:00,
2013-05-23 19:55:00,42.9,39.6,30.03,North,360,9.0,14.0,88,0.00,,,0.15,Wunderground v.1.15,2013-05-23 23:55:00,
2013-05-23 20:00:00,42.8,39.5,30.03,North,355,9.0,9.0,88,0.00,,,0.15,Wunderground v.1.15,2013-05-24 00:00:00,
2013-05-23 20:05:00,42.8,39.2,30.03,NE,36,7.0,9.0,87,0.00,,,0.15,Wunderground v.1.15,2013-05-24 00:05:00,
2013-05-23 20:10:00,42.9,39.3,30.04,North,351,8.0,8.0,87,0.00,,,0.15,Wunderground v.1.15,2013-05-24 00:10:00,
2013-05-23 20:16:00,42.9,39.3,30.04,NNW,344,8.0,17.0,87,0.00,,,0.15,Wunderground v.1.15,2013-05-24 00:16:00,
2013-05-23 20:22:00,43.0,39.4,30.04,NNW,335,8.0,8.0,87,0.00,,,0.15,Wunderground v.1.15,2013-05-24 00:22:00,
2013-05-23 20:27:00,43.1,39.8,30.05,NE,38,8.0,8.0,88,0.00,,,0.15,Wunderground v.1.15,2013-05-24 00:27:00,
2013-05-23 20:32:00,43.1,39.8,30.05,NNW,344,7.0,10.0,88,0.00,,,0.15,Wunderground v.1.15,2013-05-24 00:32:00,
2013-05-23 20:37:00,43.2,39.9,30.05,NNE,17,6.0,10.0,88,0.00,,,0.15,Wunderground v.1.15,2013-05-24 00:37:00,
2013-05-23 20:43:00,43.2,39.9,30.05,WNW,302,7.0,9.0,88,0.00,,,0.15,Wunderground v.1.15,2013-05-24 00:43:00,
2013-05-23 20:48:00,43.3,40.0,30.05,NNW,342,8.0,9.0,88,0.00,,,0.15,Wunderground v.1.15,2013-05-24 00:48:00,
2013-05-23 20:53:00,43.4,40.4,30.05,NNW,344,7.0,9.0,89,0.00,,,0.15,Wunderground v.1.15,2013-05-24 00:53:00,
2013-05-23 20:58:00,43.5,40.5,30.05,NE,39,6.0,10.0,89,0.00,,,0.15,Wunderground v.1.15,2013-05-24 00:58:00,
2013-05-23 21:04:00,43.5,40.5,30.06,NE,39,9.0,9.0,89,0.00,,,0.15,Wunderground v.1.15,2013-05-24 01:04:00,
2013-05-23 21:09:00,-999.9,-99.9,30.06,North,32767,-999.0,9.0,255,-99.99,,,0.15,Wunderground v.1.15,2013-05-24 01:09:00,
2013-05-23 21:15:00,-999.9,-99.9,30.06,North,32767,-999.0,0.0,255,-99.99,,,0.15,Wunderground v.1.15,2013-05-24 01:15:00,
2013-05-23 21:20:00,43.7,40.7,30.06,NW,318,2.0,2.0,89,0.00,,,0.15,Wunderground v.1.15,2013-05-24 01:20:00,
2013-05-23 21:25:00,43.7,40.7,30.07,NNW,336,13.0,13.0,89,0.00,,,0.15,Wunderground v.1.15,2013-05-24 01:25:00,
2013-05-23 21:30:00,43.8,40.5,30.07,NW,305,7.0,15.0,88,0.00,,,0.15,Wunderground v.1.15,2013-05-24 01:30:00,
2013-05-23 21:36:00,43.8,40.5,30.07,NW,326,8.0,10.0,88,0.00,,,0.15,Wunderground v.1.15,2013-05-24 01:36:00,
2013-05-23 21:41:00,43.9,40.3,30.08,NNW,338,8.0,8.0,87,0.00,,,0.15,Wunderground v.1.15,2013-05-24 01:41:00,
2013-05-23 21:46:00,44.0,40.4,30.07,North,355,7.0,11.0,87,0.00,,,0.15,Wunderground v.1.15,2013-05-24 01:46:00,
2013-05-23 21:52:00,44.1,40.2,30.08,NNW,348,5.0,10.0,86,0.00,,,0.15,Wunderground v.1.15,2013-05-24 01:52:00,
2013-05-23 21:57:00,44.2,40.0,30.08,NNW,329,6.0,10.0,85,0.00,,,0.15,Wunderground v.1.15,2013-05-24 01:57:00,
2013-05-23 22:02:00,44.3,40.1,30.09,NNW,345,6.0,8.0,85,0.00,,,0.15,Wunderground v.1.15,2013-05-24 02:02:00,
2013-05-23 22:07:00,44.4,40.2,30.09,NW,319,7.0,9.0,85,0.00,,,0.15,Wunderground v.1.15,2013-05-24 02:07:00,
2013-05-23 22:13:00,44.5,40.0,30.09,NNE,30,7.0,8.0,84,0.00,,,0.15,Wunderground v.1.15,2013-05-24 02:13:00,
2013-05-23 22:18:00,44.5,40.0,30.09,NNE,30,5.0,13.0,84,0.00,,,0.15,Wunderground v.1.15,2013-05-24 02:18:00,
2013-05-23 22:23:00,44.5,40.0,30.09,North,5,5.0,9.0,84,0.00,,,0.15,Wunderground v.1.15,2013-05-24 02:23:00,
2013-05-23 22:28:00,44.5,40.0,30.09,NW,319,5.0,9.0,84,0.00,,,0.15,Wunderground v.1.15,2013-05-24 02:28:00,
2013-05-23 22:33:00,44.5,40.0,30.10,NNW,338,5.0,7.0,84,0.00,,,0.15,Wunderground v.1.15,2013-05-24 02:33:00,
2013-05-23 22:39:00,44.6,40.1,30.10,NNW,338,5.0,7.0,84,0.00,,,0.15,Wunderground v.1.15,2013-05-24 02:39:00,
2013-05-23 22:44:00,44.6,40.1,30.10,North,5,5.0,6.0,84,0.00,,,0.15,Wunderground v.1.15,2013-05-24 02:44:00,
2013-05-23 22:49:00,44.6,40.4,30.10,NNE,15,4.0,6.0,85,0.00,,,0.15,Wunderground v.1.15,2013-05-24 02:49:00,
2013-05-23 22:54:00,44.6,40.1,30.11,NNW,335,4.0,9.0,84,0.00,,,0.15,Wunderground v.1.15,2013-05-24 02:54:00,
2013-05-23 22:59:00,44.6,40.1,30.11,NW,325,5.0,9.0,84,0.00,,,0.15,Wunderground v.1.15,2013-05-24 02:59:00,
2013-05-23 23:05:00,44.4,39.9,30.11,North,350,4.0,6.0,84,0.00,,,0.15,Wunderground v.1.15,2013-05-24 03:05:00,
2013-05-23 23:10:00,44.3,39.8,30.11,North,5,4.0,7.0,84,0.00,,,0.15,Wunderground v.1.15,2013-05-24 03:10:00,
2013-05-23 23:15:00,44.1,39.9,30.11,NNE,13,3.0,7.0,85,0.00,,,0.15,Wunderground v.1.15,2013-05-24 03:15:00,
2013-05-23 23:20:00,44.0,39.8,30.11,North,5,3.0,3.0,85,0.00,,,0.15,Wunderground v.1.15,2013-05-24 03:20:00,
2013-05-23 23:26:00,44.0,39.8,30.11,North,349,4.0,5.0,85,0.00,,,0.15,Wunderground v.1.15,2013-05-24 03:26:00,
2013-05-23 23:32:00,44.0,39.8,30.11,NNW,336,6.0,6.0,85,0.00,,,0.15,Wunderground v.1.15,2013-05-24 03:32:00,
2013-05-23 23:38:00,-999.9,-99.9,30.11,North,32767,-999.0,6.0,255,-99.99,,,0.15,Wunderground v.1.15,2013-05-24 03:38:00,
2013-05-23 23:43:00,-999.9,-99.9,30.11,North,32767,-999.0,0.0,255,-99.99,,,0.15,Wunderground v.1.15,2013-05-24 03:43:00,
2013-05-23 23:48:00,-999.9,-99.9,30.12,North,32767,-999.0,0.0,255,-99.99,,,0.15,Wunderground v.1.15,2013-05-24 03:48:00,
2013-05-23 23:54:00,-999.9,-99.9,30.12,North,32767,-999.0,0.0,255,-99.99,,,0.15,Wunderground v.1.15,2013-05-24 03:54:00,
2013-05-23 23:59:00,-999.9,-99.9,30.12,North,32767,-999.0,0.0,255,-99.99,,,0.00,Wunderground v.1.15,2013-05-24 03:59:00,